When you browse on this site, cookies collect data to enhance your experience and personalize the content and advertising you see.
Visit our Privacy Policy to learn more. By continuing to use the site, you agree to this use of cookies and data.
EN

Hourly Weather Otrokovice

Today, 2 July, Thursday

Time Temperature Precipitation Wind Pressure Humidity
00:00 +21°C° 0.3 mm 1 mps 741 mmHg 89%
01:00 +21°C° 0 mm 1 mps 740 mmHg 86%
02:00 +21°C° 0.5 mm 1 mps 740 mmHg 87%
03:00 +20°C° 0.5 mm 1 mps 740 mmHg 88%
04:00 +20°C° 0.5 mm 1 mps 740 mmHg 89%
05:00 +21°C° 0.1 mm 1 mps 740 mmHg 86%
06:00 +22°C° 0.1 mm 1 mps 741 mmHg 84%
07:00 +23°C° 0.1 mm 1 mps 741 mmHg 81%
08:00 +24°C° 0.2 mm 1 mps 741 mmHg 78%
09:00 +26°C° 0.2 mm 1 mps 741 mmHg 74%
10:00 +27°C° 0.2 mm 1 mps 741 mmHg 71%
11:00 +28°C° 0.2 mm 2 mps 741 mmHg 67%
12:00 +28°C° 0.2 mm 2 mps 741 mmHg 64%
13:00 +29°C° 0.2 mm 3 mps 741 mmHg 60%
14:00 +29°C° 0 mm 2 mps 741 mmHg 60%
15:00 +29°C° 0 mm 2 mps 741 mmHg 59%
16:00 +29°C° 0 mm 2 mps 741 mmHg 58%
17:00 +28°C° 0.1 mm 2 mps 741 mmHg 65%
18:00 +27°C° 0.1 mm 1 mps 741 mmHg 72%
19:00 +25°C° 0.1 mm 1 mps 741 mmHg 80%
20:00 +24°C° 0.7 mm 1 mps 741 mmHg 82%
21:00 +23°C° 0.7 mm 1 mps 741 mmHg 84%
22:00 +22°C° 0.7 mm 1 mps 741 mmHg 87%
23:00 +21°C° 0.1 mm 1 mps 741 mmHg 88%

Tomorrow, 3 July, Friday

Time Temperature Precipitation Wind Pressure Humidity
00:00 +21°C° 0.1 mm 1 mps 741 mmHg 89%
01:00 +20°C° 0.1 mm 1 mps 741 mmHg 91%
02:00 +19°C° 0 mm 2 mps 741 mmHg 91%
03:00 +19°C° 0 mm 2 mps 741 mmHg 92%
04:00 +19°C° 0 mm 3 mps 741 mmHg 92%
05:00 +19°C° 0.2 mm 2 mps 742 mmHg 93%
06:00 +19°C° 0.2 mm 2 mps 742 mmHg 93%
07:00 +19°C° 0.2 mm 2 mps 743 mmHg 93%
08:00 +19°C° 0.1 mm 2 mps 743 mmHg 90%
09:00 +20°C° 0.1 mm 3 mps 743 mmHg 87%
10:00 +20°C° 0.1 mm 3 mps 744 mmHg 84%
11:00 +21°C° 0.1 mm 3 mps 744 mmHg 80%
12:00 +22°C° 0.1 mm 4 mps 744 mmHg 75%
13:00 +23°C° 0.1 mm 4 mps 743 mmHg 71%
14:00 +23°C° 0.2 mm 4 mps 744 mmHg 70%
15:00 +23°C° 0.2 mm 4 mps 744 mmHg 70%
16:00 +24°C° 0.2 mm 3 mps 744 mmHg 69%
17:00 +22°C° 0.1 mm 3 mps 744 mmHg 74%
18:00 +21°C° 0.1 mm 2 mps 744 mmHg 79%
19:00 +20°C° 0.1 mm 2 mps 744 mmHg 84%
20:00 +19°C° 0 mm 2 mps 745 mmHg 86%
21:00 +19°C° 0 mm 1 mps 745 mmHg 87%
22:00 +18°C° 0 mm 1 mps 745 mmHg 89%
23:00 +16°C° 0 mm 1 mps 745 mmHg 90%

Day after tomorrow, 4 July, Saturday

Time Temperature Precipitation Wind Pressure Humidity
00:00 +16°C° 0 mm 1 mps 745 mmHg 91%
01:00 +15°C° 0 mm 1 mps 745 mmHg 91%
02:00 +15°C° 0 mm 1 mps 746 mmHg 92%
03:00 +15°C° 0 mm 1 mps 746 mmHg 92%
04:00 +14°C° 0 mm 1 mps 746 mmHg 92%
05:00 +16°C° 0 mm 1 mps 746 mmHg 88%
06:00 +18°C° 0 mm 1 mps 746 mmHg 83%
07:00 +20°C° 0 mm 1 mps 746 mmHg 79%
08:00 +20°C° 0 mm 2 mps 747 mmHg 73%
09:00 +23°C° 0 mm 2 mps 747 mmHg 67%
10:00 +24°C° 0 mm 2 mps 747 mmHg 61%
11:00 +25°C° 0 mm 2 mps 746 mmHg 58%
12:00 +25°C° 0 mm 2 mps 746 mmHg 55%
13:00 +26°C° 0 mm 2 mps 746 mmHg 52%
14:00 +26°C° 0 mm 2 mps 746 mmHg 53%
15:00 +26°C° 0 mm 2 mps 746 mmHg 54%
16:00 +26°C° 0 mm 2 mps 745 mmHg 54%
17:00 +25°C° 0 mm 2 mps 745 mmHg 61%
18:00 +24°C° 0 mm 2 mps 745 mmHg 68%
19:00 +22°C° 0 mm 1 mps 745 mmHg 75%
20:00 +21°C° 0 mm 1 mps 745 mmHg 78%
21:00 +20°C° 0 mm 1 mps 746 mmHg 81%
22:00 +19°C° 0 mm 1 mps 746 mmHg 84%
23:00 +18°C° 0 mm 1 mps 746 mmHg 85%

5 July, Sunday

Time Temperature Precipitation Wind Pressure Humidity
00:00 +16°C° 0 mm 0 mps 746 mmHg 86%
01:00 +15°C° 0 mm 0 mps 746 mmHg 86%
02:00 +15°C° 0 mm 0 mps 746 mmHg 87%
03:00 +14°C° 0 mm 0 mps 746 mmHg 88%
04:00 +14°C° 0 mm 0 mps 746 mmHg 88%
05:00 +16°C° 0 mm 0 mps 746 mmHg 84%
06:00 +17°C° 0 mm 0 mps 746 mmHg 79%
07:00 +19°C° 0 mm 0 mps 746 mmHg 75%
08:00 +23°C° 0 mm 1 mps 746 mmHg 70%
09:00 +24°C° 0 mm 1 mps 746 mmHg 66%
10:00 +25°C° 0 mm 2 mps 746 mmHg 62%
11:00 +26°C° 0 mm 2 mps 746 mmHg 61%
12:00 +27°C° 0 mm 2 mps 745 mmHg 59%
13:00 +28°C° 0 mm 2 mps 745 mmHg 57%
14:00 +28°C° 0 mm 3 mps 745 mmHg 58%
15:00 +28°C° 0 mm 3 mps 744 mmHg 59%
16:00 +28°C° 0 mm 3 mps 744 mmHg 60%
17:00 +27°C° 0 mm 2 mps 744 mmHg 66%
18:00 +26°C° 0 mm 2 mps 744 mmHg 72%
19:00 +25°C° 0 mm 1 mps 744 mmHg 78%
20:00 +23°C° 0 mm 1 mps 744 mmHg 81%
21:00 +22°C° 0 mm 1 mps 744 mmHg 84%
22:00 +19°C° 0 mm 0 mps 745 mmHg 87%
23:00 +18°C° 0 mm 0 mps 745 mmHg 88%

6 July, Monday

Time Temperature Precipitation Wind Pressure Humidity
00:00 +20°C° 0 mm 1 mps 744 mmHg 89%
01:00 +20°C° 0 mm 1 mps 744 mmHg 91%
02:00 +19°C° 0 mm 1 mps 744 mmHg 91%
03:00 +19°C° 0 mm 1 mps 744 mmHg 92%
04:00 +19°C° 0 mm 1 mps 744 mmHg 93%
05:00 +20°C° 0 mm 1 mps 744 mmHg 88%
06:00 +21°C° 0 mm 1 mps 744 mmHg 84%
07:00 +23°C° 0 mm 1 mps 744 mmHg 79%
08:00 +24°C° 0 mm 2 mps 744 mmHg 75%
09:00 +25°C° 0 mm 2 mps 744 mmHg 70%
10:00 +26°C° 0 mm 2 mps 744 mmHg 66%
11:00 +27°C° 0 mm 2 mps 743 mmHg 64%
12:00 +28°C° 0 mm 3 mps 743 mmHg 61%
13:00 +29°C° 0 mm 3 mps 743 mmHg 59%
14:00 +29°C° 0 mm 3 mps 742 mmHg 59%
15:00 +29°C° 0 mm 3 mps 742 mmHg 59%
16:00 +29°C° 0 mm 3 mps 742 mmHg 59%
17:00 +27°C° 0 mm 2 mps 742 mmHg 65%
18:00 +26°C° 0 mm 1 mps 742 mmHg 71%
19:00 +25°C° 0 mm 1 mps 741 mmHg 77%
20:00 +24°C° 0 mm 1 mps 742 mmHg 80%
21:00 +23°C° 0 mm 1 mps 742 mmHg 83%
22:00 +19°C° 0 mm 0 mps 742 mmHg 85%
23:00 +21°C° 0 mm 1 mps 743 mmHg 86%

7 July, Tuesday

Time Temperature Precipitation Wind Pressure Humidity
00:00 +20°C° 0 mm 1 mps 743 mmHg 88%
01:00 +19°C° 0 mm 2 mps 743 mmHg 89%
02:00 +19°C° 0 mm 2 mps 743 mmHg 88%
03:00 +18°C° 0 mm 2 mps 743 mmHg 88%
04:00 +18°C° 0 mm 2 mps 743 mmHg 88%
05:00 +18°C° 0 mm 3 mps 743 mmHg 85%
06:00 +18°C° 0 mm 3 mps 744 mmHg 82%
07:00 +19°C° 0 mm 3 mps 744 mmHg 79%
08:00 +19°C° 0 mm 4 mps 744 mmHg 76%
09:00 +20°C° 0 mm 4 mps 744 mmHg 73%
10:00 +20°C° 0 mm 5 mps 744 mmHg 71%
11:00 +20°C° 0 mm 5 mps 744 mmHg 71%
12:00 +19°C° 0 mm 5 mps 744 mmHg 72%
13:00 +19°C° 0 mm 5 mps 744 mmHg 72%
14:00 +19°C° 0 mm 5 mps 744 mmHg 73%
15:00 +17°C° 0 mm 5 mps 745 mmHg 75%
16:00 +17°C° 0 mm 5 mps 745 mmHg 76%
17:00 +17°C° 0 mm 4 mps 745 mmHg 78%
18:00 +16°C° 0 mm 3 mps 745 mmHg 80%
19:00 +16°C° 0 mm 3 mps 745 mmHg 82%
20:00 +15°C° 0.4 mm 2 mps 746 mmHg 86%
21:00 +15°C° 0.4 mm 2 mps 746 mmHg 90%
22:00 +14°C° 0.4 mm 1 mps 747 mmHg 94%
23:00 +14°C° 0.4 mm 2 mps 747 mmHg 94%
Show more